Location: Chimay
(50.0486°N, 4.3171°E)
Time: 21:48:50
(UTC+00:00)

Cosmos 1743 - Pass Details

Date: 08 August 2020
Orbit: 509 x 528 km, 82.5° (Epoch: 21 September)

Event Time Altitude Azimuth Distance (km) Brightness Sun altitude
Exits shadow 22:38:50 23° 73° (ENE) 1,152 4.4 -22.4°
Drops below altitude 10° 22:41:22 10° 34° (NE) 1,784 5.9 -22.5°
Sets 22:43:48 0° 21° (NNE) 2,681 7.1 -22.6°
